BAW43C EGKK-KMCO

Flight info

Callsign BAW43C
Flight time N/A
Altitude 36000
Route NOVMA L620 SAM N19 ADKIK DCT FONZU DCT LEDGO DCT LIMRI/M082F380 DCT 52N020W 53N030W 53N040W 51N050W DCT ALLRY/N0459F380 N468A TUSKY/N0466F400 DCT FOXBO DCT RIFLE DCT HEADI Q97 KALDA Q131 WAALT Y289 BAHAA DCT HIBAC ALYNA4
Aircraft B772/H-SDE2E3FGHIJ5LORVWXY/LB1D1

Departure

Time 2026-04-19 04:42
Airport London Gatwick Airport (EGKK)

Arrival

Time N/A
Airport Orlando International Airport (KMCO)
Time Latitude Longitude Altitude Speed Heading
2026-04-19 04:19 51.15584 -0.16908 221 ft 0 kts 167°
2026-04-19 04:34 51.15591 -0.16911 219 ft 3 kts 170°
2026-04-19 04:34 51.15611 -0.16914 213 ft 3 kts 181°
2026-04-19 04:34 51.15631 -0.16911 216 ft 3 kts 195°
2026-04-19 04:35 51.15649 -0.16900 223 ft 3 kts 213°
2026-04-19 04:35 51.15664 -0.16881 219 ft 3 kts 237°
2026-04-19 04:35 51.15671 -0.16860 219 ft 1 kts 257°
2026-04-19 04:35 51.15671 -0.16859 219 ft 0 kts 257°
2026-04-19 04:37 51.15664 -0.16907 218 ft 12 kts 257°
2026-04-19 04:38 51.15643 -0.17044 213 ft 13 kts 256°
2026-04-19 04:38 51.15623 -0.17181 214 ft 13 kts 258°
2026-04-19 04:38 51.15589 -0.17307 216 ft 14 kts 214°
2026-04-19 04:38 51.15484 -0.17300 209 ft 16 kts 171°
2026-04-19 04:39 51.15390 -0.17230 221 ft 14 kts 116°
2026-04-19 04:39 51.15415 -0.17078 219 ft 14 kts 76°
2026-04-19 04:39 51.15437 -0.16923 212 ft 14 kts 78°
2026-04-19 04:39 51.15450 -0.16767 216 ft 14 kts 105°
2026-04-19 04:40 51.15363 -0.16701 215 ft 14 kts 164°
2026-04-19 04:40 51.15299 -0.16674 214 ft 1 kts 166°
2026-04-19 04:40 51.15294 -0.16672 215 ft 2 kts 166°
2026-04-19 04:40 51.15229 -0.16649 217 ft 15 kts 168°
2026-04-19 04:41 51.15139 -0.16694 213 ft 16 kts 249°
2026-04-19 04:41 51.15099 -0.16965 214 ft 48 kts 258°
2026-04-19 04:41 51.14961 -0.17965 213 ft 135 kts 257°
2026-04-19 04:41 51.14700 -0.19783 391 ft 193 kts 257°
2026-04-19 04:42 51.14357 -0.21968 1374 ft 203 kts 261°
2026-04-19 04:42 51.14048 -0.24263 1935 ft 229 kts 262°
2026-04-19 04:42 51.13710 -0.26872 2216 ft 250 kts 262°
2026-04-19 04:42 51.13342 -0.29630 2873 ft 257 kts 261°
2026-04-19 04:43 51.12958 -0.32425 3604 ft 259 kts 260°
2026-04-19 04:43 51.12566 -0.35241 4006 ft 262 kts 260°
2026-04-19 04:43 51.12165 -0.38102 4283 ft 266 kts 260°
2026-04-19 04:43 51.11774 -0.40962 5226 ft 261 kts 260°
2026-04-19 04:44 51.11336 -0.43748 6040 ft 260 kts 252°
2026-04-19 04:44 51.10571 -0.46396 6686 ft 266 kts 245°
2026-04-19 04:44 51.09698 -0.49010 7401 ft 268 kts 245°
2026-04-19 04:44 51.08827 -0.51643 8109 ft 270 kts 246°
2026-04-19 04:45 51.07957 -0.54356 8716 ft 275 kts 246°
2026-04-19 04:45 51.07099 -0.57066 9536 ft 274 kts 247°
2026-04-19 04:45 51.06242 -0.59797 10226 ft 278 kts 248°
2026-04-19 04:45 51.05386 -0.62585 10668 ft 285 kts 251°
2026-04-19 04:46 51.04834 -0.65694 10821 ft 302 kts 262°
2026-04-19 04:46 51.04452 -0.69060 10997 ft 324 kts 263°
2026-04-19 04:46 51.04032 -0.72642 11511 ft 335 kts 262°
2026-04-19 04:46 51.03571 -0.76317 12208 ft 342 kts 262°
2026-04-19 04:47 51.03080 -0.80041 13054 ft 345 kts 261°
2026-04-19 04:47 51.02574 -0.83789 13954 ft 348 kts 261°
2026-04-19 04:47 51.02062 -0.87564 14746 ft 351 kts 261°
2026-04-19 04:47 51.01546 -0.91363 15508 ft 354 kts 261°
2026-04-19 04:48 51.00997 -0.95195 16255 ft 357 kts 260°
2026-04-19 04:48 51.00416 -0.99047 17050 ft 360 kts 260°
2026-04-19 04:48 50.99856 -1.02935 17810 ft 363 kts 261°
2026-04-19 04:48 50.99316 -1.06878 18570 ft 367 kts 261°
2026-04-19 04:49 50.98775 -1.10857 19251 ft 370 kts 261°
2026-04-19 04:49 50.98236 -1.14809 19929 ft 373 kts 261°
2026-04-19 04:49 50.97680 -1.18850 20626 ft 376 kts 261°
2026-04-19 04:49 50.97116 -1.22923 21299 ft 379 kts 261°
2026-04-19 04:50 50.96545 -1.27036 21984 ft 383 kts 261°
2026-04-19 04:50 50.95967 -1.31175 22666 ft 386 kts 261°
2026-04-19 04:50 50.95383 -1.35354 23316 ft 389 kts 261°
2026-04-19 04:50 50.94827 -1.39585 23923 ft 394 kts 262°
2026-04-19 04:51 50.94286 -1.43862 24394 ft 398 kts 262°
2026-04-19 04:51 50.93744 -1.48192 24898 ft 401 kts 262°
2026-04-19 04:51 50.93195 -1.52542 25444 ft 403 kts 262°
2026-04-19 04:51 50.92639 -1.56912 25988 ft 405 kts 262°
2026-04-19 04:52 50.92266 -1.59826 26310 ft 407 kts 262°
2026-04-19 04:52 50.91512 -1.65681 26941 ft 411 kts 262°
2026-04-19 04:52 50.90935 -1.70135 27405 ft 414 kts 262°
2026-04-19 04:52 50.90543 -1.73157 27706 ft 415 kts 262°
2026-04-19 04:53 50.89957 -1.77654 28151 ft 418 kts 262°
2026-04-19 04:53 50.89373 -1.82123 28583 ft 420 kts 263°
2026-04-19 04:53 50.88778 -1.86667 28995 ft 423 kts 263°
2026-04-19 04:53 50.88178 -1.91242 29323 ft 426 kts 262°
2026-04-19 04:54 50.87571 -1.95854 29643 ft 430 kts 262°
2026-04-19 04:54 50.86955 -2.00506 30018 ft 432 kts 262°
2026-04-19 04:54 50.86337 -2.05172 30403 ft 434 kts 262°
2026-04-19 04:54 50.85717 -2.09861 30701 ft 436 kts 262°
2026-04-19 04:55 50.85093 -2.14566 30972 ft 438 kts 262°
2026-04-19 04:55 50.84464 -2.19290 31230 ft 440 kts 262°
2026-04-19 04:55 50.83831 -2.24036 31473 ft 442 kts 262°
2026-04-19 04:55 50.83192 -2.28801 31711 ft 444 kts 262°
2026-04-19 04:56 50.82546 -2.33609 31928 ft 446 kts 262°
2026-04-19 04:56 50.81897 -2.38430 32096 ft 448 kts 262°
2026-04-19 04:56 50.81245 -2.43252 32367 ft 449 kts 262°
2026-04-19 04:56 50.80589 -2.48077 32695 ft 447 kts 262°
2026-04-19 04:57 50.80062 -2.52844 33016 ft 444 kts 266°
2026-04-19 04:57 50.79800 -2.57758 33305 ft 442 kts 271°
2026-04-19 04:57 50.79830 -2.62598 33592 ft 440 kts 275°
2026-04-19 04:57 50.79971 -2.67363 33881 ft 440 kts 275°
2026-04-19 04:58 50.80103 -2.72192 34187 ft 439 kts 275°
2026-04-19 04:58 50.80225 -2.77014 34470 ft 439 kts 275°
2026-04-19 04:58 50.80341 -2.81846 34669 ft 440 kts 275°
2026-04-19 04:58 50.80453 -2.86688 34803 ft 442 kts 275°
2026-04-19 04:59 50.80561 -2.91547 35019 ft 442 kts 275°
2026-04-19 04:59 50.80665 -2.96408 35267 ft 442 kts 274°
2026-04-19 04:59 50.80768 -3.01266 35508 ft 442 kts 274°
2026-04-19 04:59 50.80869 -3.06133 35730 ft 442 kts 274°
2026-04-19 05:00 50.80967 -3.10993 35945 ft 443 kts 274°
2026-04-19 05:00 50.81065 -3.15862 36159 ft 443 kts 274°
2026-04-19 05:00 50.81161 -3.20746 36267 ft 446 kts 274°
2026-04-19 05:00 50.81254 -3.25592 36314 ft 447 kts 274°
2026-04-19 05:01 50.81436 -3.35389 36330 ft 444 kts 274°
2026-04-19 05:01 50.81608 -3.45133 36341 ft 442 kts 274°
2026-04-19 05:02 50.81773 -3.54867 36343 ft 442 kts 274°
2026-04-19 05:02 50.81929 -3.64593 36359 ft 443 kts 274°
2026-04-19 05:03 50.82079 -3.74330 36355 ft 443 kts 274°
2026-04-19 05:03 50.82219 -3.84032 36358 ft 443 kts 274°
2026-04-19 05:04 50.82716 -3.93713 36349 ft 440 kts 283°
2026-04-19 05:04 50.83975 -4.03190 36352 ft 440 kts 284°
2026-04-19 05:05 50.85224 -4.12683 36354 ft 440 kts 283°
2026-04-19 05:05 50.86447 -4.22178 36346 ft 441 kts 283°
2026-04-19 05:06 50.87659 -4.31705 36342 ft 441 kts 283°
2026-04-19 05:06 50.88859 -4.41231 36348 ft 441 kts 283°
2026-04-19 05:07 50.90055 -4.50776 36349 ft 442 kts 283°
2026-04-19 05:07 50.91246 -4.60345 36350 ft 442 kts 283°
2026-04-19 05:08 50.93009 -4.74641 36331 ft 442 kts 283°
2026-04-19 05:09 50.94179 -4.84217 36345 ft 442 kts 283°
2026-04-19 05:09 50.95344 -4.93812 36349 ft 442 kts 283°
2026-04-19 05:10 50.96498 -5.03398 36346 ft 443 kts 283°
2026-04-19 05:10 50.97647 -5.13005 36348 ft 443 kts 283°
2026-04-19 05:11 50.98781 -5.22557 36347 ft 443 kts 283°
2026-04-19 05:11 50.99915 -5.32175 36347 ft 443 kts 283°
2026-04-19 05:12 51.01040 -5.41795 36349 ft 443 kts 283°
2026-04-19 05:12 51.02156 -5.51413 36348 ft 443 kts 282°
2026-04-19 05:13 51.03265 -5.61037 36345 ft 443 kts 282°
2026-04-19 05:13 51.04365 -5.70657 36329 ft 442 kts 282°
2026-04-19 05:14 51.05455 -5.80271 36343 ft 442 kts 282°
2026-04-19 05:14 51.06541 -5.89913 36352 ft 443 kts 282°
2026-04-19 05:15 51.07617 -5.99543 36345 ft 443 kts 282°
2026-04-19 05:15 51.08687 -6.09204 36351 ft 443 kts 282°
2026-04-19 05:16 51.09743 -6.18807 36337 ft 443 kts 282°
2026-04-19 05:16 51.10797 -6.28469 36358 ft 444 kts 282°
2026-04-19 05:17 51.11845 -6.38147 36356 ft 444 kts 282°
2026-04-19 05:17 51.12885 -6.47839 36360 ft 444 kts 282°
2026-04-19 05:18 51.13917 -6.57536 36349 ft 444 kts 282°
2026-04-19 05:18 51.14942 -6.67240 36345 ft 444 kts 282°
2026-04-19 05:19 51.15959 -6.76952 36357 ft 444 kts 282°
2026-04-19 05:19 51.16969 -6.86676 36359 ft 445 kts 282°
2026-04-19 05:20 51.17970 -6.96406 36349 ft 445 kts 282°
2026-04-19 05:20 51.18964 -7.06140 36356 ft 445 kts 282°
2026-04-19 05:21 51.19944 -7.15822 36338 ft 445 kts 281°
2026-04-19 05:21 51.20923 -7.25569 36357 ft 446 kts 281°
2026-04-19 05:22 51.21896 -7.35354 36362 ft 447 kts 281°
2026-04-19 05:22 51.22864 -7.45166 36364 ft 448 kts 281°
2026-04-19 05:23 51.23826 -7.54998 36361 ft 448 kts 281°
2026-04-19 05:23 51.25026 -7.64751 36343 ft 447 kts 284°
2026-04-19 05:24 51.26355 -7.74453 36356 ft 448 kts 284°
2026-04-19 05:24 51.27679 -7.84180 36363 ft 448 kts 284°
2026-04-19 05:25 51.28976 -7.93864 36361 ft 449 kts 284°
2026-04-19 05:25 51.30266 -8.03627 36371 ft 449 kts 284°
2026-04-19 05:26 51.31548 -8.13407 36355 ft 449 kts 284°
2026-04-19 05:26 51.32823 -8.23198 36350 ft 450 kts 284°
2026-04-19 05:27 51.34090 -8.32995 36356 ft 450 kts 284°
2026-04-19 05:27 51.35352 -8.42818 36354 ft 451 kts 284°